Location: Unspecified
(0.0000°N, 0.0000°E)
Time: 13:52:27
(UTC+00:00)

ISS - Pass Details

Date: 27 March 2017
Orbit: 400 x 409 km, 51.6° (Epoch: 23 April)

Event Time Altitude Azimuth Distance (km) Brightness Sun altitude
Exits shadow 04:48:06 - 352° (N) 1,803 -0.6 -19.3°
Reaches altitude 10° 04:49:05 10° 0° (N) 1,464 -1.0 -19.1°
Maximum altitude 04:51:45 23° 54° (NE) 927 -1.4 -18.4°
Drops below altitude 10° 04:54:25 10° 109° (ESE) 1,469 0.1 -17.7°
Sets 04:56:47 0° 124° (SE) 2,331 0.9 -17.1°
